Regional Weather Roundup
Issued by NWS

Home | Current Version | Previous Version | Graphics & Text | Print | Product List | Glossary On
Versions: 1 2 3 4 5 6 7 8 9 10 11 12 13 14 15 16 17 18 19 20 21 22 23 24 25 26 27 28 29 30 31 32 33 34 35 36 37 38 39 40 41 42 43 44 45 46 47 48 49 50
000
ASUS43 KIND 261709
RWRIN

WEATHER ROUNDUP FOR INDIANA
NATIONAL WEATHER SERVICE INDIANAPOLIS IN
100 PM EDT SAT JUL 26 2014

NOTE: "FAIR" INDICATES FEW OR NO CLOUDS BELOW 12,000 FEET WITH NO
SIGNIFICANT WEATHER AND/OR OBSTRUCTIONS TO VISIBILITY.

* - STATION DOES NOT REPORT WEATHER SUCH AS PRECIPITATION OR FOG.

+ - STATION NOT QUALITY CONTROLLED BY THE NATIONAL WEATHER SERVICE.
    USE DATA WITH CAUTION...ESPECIALLY DEWPOINT AND RELATIVE
    HUMIDITY OBSERVATIONS.

INZ001>003-010>013-019-020-261800-
NORTHWEST INDIANA

CITY           SKY/WX    TMP DP  RH WIND       PRES   REMARKS
GARY /AIRPORT/ CLOUDY    77  66  69 SW8       29.87R
KNOX *+        CLOUDY    74  65  75 SW8       29.87S
LA PORTE +     CLOUDY    74  66  76 SW7       29.88S
MICHIGAN CITY+ CLOUDY    75  64  69 SW7       29.87R
MONTICELLO +   CLOUDY    74  68  82 SW7       29.87R
RENSSELAER +   CLOUDY    73  70  88 SW5       29.87F
VALPARAISO     CLOUDY    75  67  76 SW9       29.88R

$$

LMZ046-743>745-261800-
SOUTHERN LAKE MICHIGAN

STATION/POSITION TIME  TEMP WIND        PRES
                       AIR  DIR/SP/G
                 (UTC) (F)  (DEG/KT/KT) (MB)
MICHIGAN CITY    1700   74  200/  8/ 10   N/A

$$

INZ004-005-014>016-021>024-261800-
NORTH CENTRAL INDIANA

CITY           SKY/WX    TMP DP  RH WIND       PRES   REMARKS
GOSHEN         CLOUDY    78  67  68 S6        29.86F
LOGANSPORT +   CLOUDY    75  66  73 W9        29.89R
PERU/GRISSOM   CLOUDY    78  73  84 W9        29.88S
ROCHESTER +    CLOUDY    79  68  69 SW8       29.88S
SOUTH BEND     CLOUDY    77  65  66 SW12      29.86F
WARSAW +       PTSUNNY   77  68  73 SW5       29.87F

$$

INZ006>009-017-018-025>027-261800-
NORTHEAST INDIANA

CITY           SKY/WX    TMP DP  RH WIND       PRES   REMARKS
ANGOLA *+      CLOUDY    79  64  61 CALM      29.88F
AUBURN +       PTSUNNY   79  63  57 CALM      29.89F
FORT WAYNE     CLOUDY    79  66  64 SW6       29.88F
HUNTINGTON +   PTSUNNY   79  68  69 S5        29.87F

$$

INZ028-029-035-036-043>045-051>053-261800-
WEST CENTRAL INDIANA

CITY           SKY/WX    TMP DP  RH WIND       PRES   REMARKS
GREENCASTLE +  MOSUNNY   79  70  73 CALM      29.91R
LAFAYETTE      CLOUDY    76  68  76 SW6       29.87S
TERRE HAUTE    MOSUNNY   82  71  69 SW9       29.89S

$$

INZ030>032-037>040-046>048-054>057-064-065-261800-
CENTRAL INDIANA

CITY           SKY/WX    TMP DP  RH WIND       PRES   REMARKS
ANDERSON       MOSUNNY   77  66  69 S12G17    29.90F
CP ATTERBURY + MOSUNNY   81  68  65 SW12      29.91F
COLUMBUS       SUNNY     77  70  78 SW9       29.92F
GREENWOOD *+   SUNNY     81  73  78 SW6       29.90F
INDIANAPOLIS   MOSUNNY   79  69  71 SW10      29.88F
-EAGLE CREEK   SUNNY     80  68  66 SW9       29.88F
KOKOMO *+      CLOUDY    79  70  73 SW8       29.88S
MARION +       CLOUDY    78  67  69 SW6       29.90R
MT COMFORT *+  MOSUNNY   79  77  94 S8        29.89F
SHELBYVILLE    SUNNY     80  70  71 SW15      29.90F
ZIONSVILLE +   MOSUNNY   81  68  64 SW7       29.89F

$$

INZ033-034-041-042-049-050-058-059-261800-
EAST CENTRAL INDIANA

CITY           SKY/WX    TMP DP  RH WIND       PRES   REMARKS
MUNCIE         MOSUNNY   80  67  64 SW9       29.89F

$$

INZ060-061-067>069-081>083-085>088-261800-
SOUTHWEST INDIANA

CITY           SKY/WX    TMP DP  RH WIND       PRES   REMARKS
EVANSVILLE     MOSUNNY   85  70  60 S14       29.94F
HUNTINGBURG *+ SUNNY     84  72  65 SW15      29.93F
WASHINGTON +   SUNNY     82  74  74 SW9G20    29.89F

$$

INZ062-063-066-070>080-084-089>092-261800-
SOUTH CENTRAL AND SOUTHEAST INDIANA

CITY           SKY/WX    TMP DP  RH WIND       PRES   REMARKS
BLOOMINGTON    MOSUNNY   81  71  71 SW10      29.91F
SEYMOUR +      MOSUNNY   77  55  47 S14       29.92F

$$




USA.gov is the U.S. government's official web portal to all federal, state and local government web resources and services.